Regional Weather Roundup
Issued by NWS

Home | Current Version | Previous Version | Graphics & Text | Print | Product List | Glossary On
Versions: 1 2 3 4 5 6 7 8 9 10 11 12 13 14 15 16 17 18 19 20 21 22 23 24 25 26 27 28 29 30 31 32 33 34 35 36 37 38 39 40 41 42 43 44 45 46 47 48 49 50
000
ASUS43 KTOP 312008
RWRKS

WEATHER ROUNDUP FOR KANSAS
NATIONAL WEATHER SERVICE GOODLAND KS
300 PM CDT THU JUL 31 2014

NOTE:  "FAIR" INDICATES FEW OR NO CLOUDS BELOW 12,000 FEET WITH NO
SIGNIFICANT WEATHER AND/OR OBSTRUCTIONS TO VISIBILITY.

KSZ001>006-013>018-027>032-041>047-312100-
NORTHWEST KANSAS

CITY           SKY/WX    TMP DP  RH WIND       PRES   REMARKS
GOODLAND       MOSUNNY   82  52  35 NW14      30.20F
HAYS           MOSUNNY   82  55  39 NE5       30.11F
HILL CITY      PTSUNNY   86  50  28 SW8       30.11F
RUSSELL        MOSUNNY   84  57  39 VRB5      30.09F
$$

KSZ061>065-074>080-084>089-312100-
SOUTHWEST KANSAS

CITY           SKY/WX    TMP DP  RH WIND       PRES   REMARKS
DODGE CITY     MOSUNNY   81  53  37 VRB7      30.16F
ELKHART          N/A     77  54  45 N5          N/A
GARDEN CITY    SUNNY     79  51  37 CALM      30.17F
GREAT BEND       N/A     79  57  47 NE3       30.11F
LIBERAL        PTSUNNY   79  52  38 NE5       30.19F
PRATT          SUNNY     79  52  38 N3        30.14F
$$

KSZ066>073-081>083-090>101-312100-
SOUTHEAST KANSAS

CITY           SKY/WX    TMP DP  RH WIND       PRES   REMARKS
CHANUTE        PTSUNNY   80  60  50 SE3       30.08F
COFFEYVILLE    CLOUDY    81  63  54 N5        30.07F
HUTCHINSON     MOSUNNY   80  54  40 VRB3      30.11F
MEDICINE LODGE   N/A     79  56  45 VRB3      30.12F
NEWTON         MOSUNNY   81  52  36 NE3       30.14F
PARSONS        CLOUDY    80  63  55 NE3       30.09F
WICHITA INTL   MOSUNNY   81  54  39 W3        30.09F
WICHITA JABRA  MOSUNNY   81  57  43 N6        30.10F
WICHITA MCCONL MOSUNNY   81  53  38 VRB2      30.10F
WINFIELD       MOSUNNY   82  63  52 NE5       30.10F
$$

KSZ007>012-019>026-033>040-048>060-102>105-312100-
NORTHEAST KANSAS

CITY           SKY/WX    TMP DP  RH WIND       PRES   REMARKS
CONCORDIA      SUNNY     85  56  37 VRB5      30.08F
EMPORIA        MOSUNNY   81  52  36 VRB3      30.09F
LAWRENCE       MOSUNNY   85  57  38 NE3       30.08F
MANHATTAN      SUNNY     83  52  34 N3        30.08F
MARYSVILLE     SUNNY     86  48  26 S5        30.07F
OLATHE IND     PTSUNNY   82  54  37 VRB7      30.09F
OLATHE EXE     MOSUNNY   82  55  39 E3        30.08F
SALINA         MOSUNNY   86  52  30 VRB5G17   30.09F
TOPEKA BILLARD MOSUNNY   85  53  33 VRB3      30.08F
TOPEKA FORBES  SUNNY     84  51  31 SE6       30.08F
$$


USA.gov is the U.S. government's official web portal to all federal, state and local government web resources and services.